Allentown, PA

7:02 PM EDT on August 29, 2016 (GMT -0400)
Allentown

Weather History for KXLL - February, 2014

Change the Weather History Date:

Saturday, February 22, 2014

  Actual Average (KABE) Record (KABE)
Temperature  
Mean Temperature 42 °F 32 °F  
Max Temperature 51 °F 42 °F 68 °F (1974)
Min Temperature 32 °F 23 °F 2 °F (1968)
Degree Days  
Heating Degree Days 24 33  
Month to date heating degree days 768  
Since 1 July heating degree days 4118  
Cooling Degree Days 0 0  
Month to date cooling degree days 0  
Year to date cooling degree days 0  
Moisture  
Dew Point 18 °F    
Average Humidity 40    
Maximum Humidity 81    
Minimum Humidity 21    
Precipitation  
Precipitation 0.00 in 0.10 in 0.90 in (2003)
Month to date precipitation 2.11  
Year to date precipitation 5.14  
Snow  
Snow 0.00 in 0.40 in 8.60 in (1948)
Month to date snowfall 9.1  
Since 1 July snowfall 25.0  
Snow Depth -    
Sea Level Pressure  
Sea Level Pressure 30.00 in    
Wind  
Wind Speed 8 mph (SSW)    
Max Wind Speed 21 mph    
Max Gust Speed 28 mph    
Visibility 10 miles    
Events      
T = Trace of Precipitation, MM = Missing Value Source: NWS Daily Summary

Daily Weather History Graph

Daily Weather History Graph

Search for Another Location

Airport or City:

Trip Planner

Search our weather history database for the weather conditions in past years. The results will help you decide how hot, cold, wet, or windy it might be!

Date:

Astronomy

Feb. 22, 2014 Rise Set
Actual Time 6:46 AM EST 5:45 PM EST
Civil Twilight 6:18 AM EST 6:12 PM EST
Nautical Twilight 5:46 AM EST 6:44 PM EST
Astronomical Twilight 5:15 AM EST 7:16 PM EST
Moon 12:39 AM EST (2/22) 10:53 AM EST (2/22)
Length of Visible Light 11h 54m
Length of Day
10h 59m
Waning Gibbous, 50% of the Moon is Illuminated
Feb 22
Waning Gibbous
Feb 22
Last Quarter
Mar 1
New
Mar 8
First Quarter
Mar 16
Full

Hourly Weather History & Observations

Time (EST) Temp. Windchill Dew Point Humidity Pressure Visibility Wind Dir Wind Speed Gust Speed Precip Events Conditions
12:15 AM 33.8 °F 27.7 °F 28.4 °F 81% 29.94 in 10.0 mi SSW 6.9 mph - N/A   Clear
12:35 AM 33.8 °F 27.7 °F 28.4 °F 81% 29.94 in 10.0 mi SSW 6.9 mph - N/A   Clear
12:55 AM 33.8 °F 29.6 °F 28.4 °F 81% 29.95 in 10.0 mi SSW 4.6 mph - N/A   Clear
1:15 AM 35.6 °F 30.7 °F 26.6 °F 70% 29.95 in 10.0 mi SW 5.8 mph - N/A   Clear
1:35 AM 33.8 °F 28.6 °F 26.6 °F 75% 29.96 in 10.0 mi SSW 5.8 mph - N/A   Clear
1:55 AM 33.8 °F 28.6 °F 24.8 °F 70% 29.96 in 10.0 mi SSW 5.8 mph - N/A   Clear
2:15 AM 37.4 °F 32.1 °F 23.0 °F 56% 29.96 in 10.0 mi South 6.9 mph - N/A   Clear
2:35 AM 37.4 °F 32.1 °F 21.2 °F 52% 29.96 in 10.0 mi SSW 6.9 mph - N/A   Clear
2:55 AM 39.2 °F 34.2 °F 21.2 °F 49% 29.97 in 10.0 mi SSW 6.9 mph - N/A   Clear
3:15 AM 37.4 °F 32.1 °F 21.2 °F 52% 29.98 in 10.0 mi SSW 6.9 mph - N/A   Clear
3:35 AM 37.4 °F 32.8 °F 19.4 °F 48% 29.98 in 10.0 mi South 5.8 mph - N/A   Clear
3:55 AM 37.4 °F 32.8 °F 19.4 °F 48% 29.99 in 10.0 mi SSW 5.8 mph - N/A   Clear
4:15 AM 35.6 °F 29.9 °F 21.2 °F 56% 30.01 in 10.0 mi SSW 6.9 mph - N/A   Clear
4:35 AM 35.6 °F 30.7 °F 19.4 °F 52% 30.02 in 10.0 mi SW 5.8 mph - N/A   Clear
4:55 AM 35.6 °F 32.8 °F 19.4 °F 52% 30.02 in 10.0 mi WSW 3.5 mph - N/A   Clear
5:15 AM 37.4 °F - 19.4 °F 48% 30.02 in 10.0 mi Calm Calm - N/A   Clear
5:35 AM 35.6 °F 31.7 °F 19.4 °F 52% 30.02 in 10.0 mi SSE 4.6 mph - N/A   Clear
5:55 AM 35.6 °F 29.2 °F 17.6 °F 48% 30.02 in 10.0 mi South 8.1 mph - N/A   Clear
6:15 AM 35.6 °F 31.7 °F 17.6 °F 48% 30.03 in 10.0 mi SSW 4.6 mph - N/A   Clear
6:35 AM 33.8 °F 30.8 °F 17.6 °F 52% 30.03 in 10.0 mi SW 3.5 mph - N/A   Clear
6:55 AM 32.0 °F 27.5 °F 21.2 °F 64% 30.03 in 10.0 mi South 4.6 mph - N/A   Clear
7:15 AM 33.8 °F 28.6 °F 17.6 °F 52% 30.04 in 10.0 mi SSW 5.8 mph - N/A   Clear
7:35 AM 32.0 °F 26.4 °F 19.4 °F 60% 30.05 in 10.0 mi South 5.8 mph - N/A   Clear
7:55 AM 35.6 °F 29.2 °F 17.6 °F 48% 30.05 in 10.0 mi SSW 8.1 mph - N/A   Clear
8:15 AM 37.4 °F 33.8 °F 17.6 °F 45% 30.06 in 10.0 mi SSW 4.6 mph - N/A   Clear
8:35 AM 41.0 °F 35.2 °F 17.6 °F 39% 30.05 in 10.0 mi SSW 9.2 mph - N/A   Clear
8:55 AM 41.0 °F 35.8 °F 17.6 °F 39% 30.05 in 10.0 mi SSW 8.1 mph - N/A   Clear
9:15 AM 42.8 °F 37.5 °F 17.6 °F 36% 30.05 in 10.0 mi SSW 9.2 mph - N/A   Clear
9:35 AM 42.8 °F 37.0 °F 17.6 °F 36% 30.05 in 10.0 mi South 10.4 mph - N/A   Clear
9:55 AM 44.6 °F 39.2 °F 17.6 °F 34% 30.05 in 10.0 mi South 10.4 mph - N/A   Clear
10:15 AM 44.6 °F 40.2 °F 17.6 °F 34% 30.04 in 10.0 mi South 8.1 mph - N/A   Clear
10:35 AM 46.4 °F 41.9 °F 17.6 °F 32% 30.03 in 10.0 mi SSW 9.2 mph - N/A   Clear
10:55 AM 46.4 °F 41.9 °F 14.0 °F 27% 30.03 in 10.0 mi SSW 9.2 mph 19.6 mph N/A   Clear
11:15 AM 46.4 °F 41.9 °F 15.8 °F 29% 30.03 in 10.0 mi SSW 9.2 mph - N/A   Clear
11:35 AM 50.0 °F - 12.2 °F 22% 30.03 in 10.0 mi SW 17.3 mph 23.0 mph N/A   Clear
11:55 AM 50.0 °F - 12.2 °F 22% 30.02 in 10.0 mi SW 15.0 mph 21.9 mph N/A   Clear
12:15 PM 50.0 °F - 12.2 °F 22% 30.02 in 10.0 mi SW 19.6 mph 26.5 mph N/A   Clear
12:35 PM 50.0 °F - 12.2 °F 22% 30.01 in 10.0 mi SW 17.3 mph 27.6 mph N/A   Clear
12:55 PM 50.0 °F - 12.2 °F 22% 30.00 in 10.0 mi SW 20.7 mph 24.2 mph N/A   Clear
1:15 PM 50.0 °F - 12.2 °F 22% 29.99 in 10.0 mi SW 18.4 mph 27.6 mph N/A   Clear
1:35 PM 50.0 °F - 12.2 °F 22% 29.98 in 10.0 mi SW 19.6 mph 27.6 mph N/A   Clear
1:55 PM 51.8 °F - 14.0 °F 22% 29.97 in 10.0 mi SW 16.1 mph 19.6 mph N/A   Clear
2:15 PM 51.8 °F - 12.2 °F 21% 29.97 in 10.0 mi SW 12.7 mph 21.9 mph N/A   Clear
2:35 PM 51.8 °F - 12.2 °F 21% 29.98 in 10.0 mi SW 11.5 mph 23.0 mph N/A   Clear
2:55 PM 51.8 °F - 12.2 °F 21% 29.98 in 10.0 mi SW 16.1 mph 24.2 mph N/A   Clear
3:15 PM 51.8 °F - 12.2 °F 21% 29.98 in 10.0 mi SW 15.0 mph 24.2 mph N/A   Clear
3:35 PM 51.8 °F - 12.2 °F 21% 29.98 in 10.0 mi SW 16.1 mph 21.9 mph N/A   Clear
3:55 PM 51.8 °F - 12.2 °F 21% 29.98 in 10.0 mi SW 15.0 mph 19.6 mph N/A   Clear
4:15 PM 51.8 °F - 12.2 °F 21% 29.98 in 10.0 mi WSW 10.4 mph 19.6 mph N/A   Clear
4:35 PM 51.8 °F - 14.0 °F 22% 29.99 in 10.0 mi SW 15.0 mph - N/A   Clear
4:55 PM 51.8 °F - 14.0 °F 22% 29.98 in 10.0 mi SW 9.2 mph 18.4 mph N/A   Clear
5:15 PM 50.0 °F - 14.0 °F 24% 29.98 in 10.0 mi SSW 6.9 mph - N/A   Clear
5:35 PM 50.0 °F - 15.8 °F 26% 29.99 in 10.0 mi SW 8.1 mph - N/A   Clear
5:55 PM 48.2 °F - 15.8 °F 27% 30.00 in 10.0 mi SW 8.1 mph - N/A   Clear
6:15 PM 46.4 °F 42.9 °F 15.8 °F 29% 30.00 in 10.0 mi SW 6.9 mph - N/A   Clear
6:35 PM 46.4 °F 43.5 °F 17.6 °F 32% 30.01 in 10.0 mi SW 5.8 mph - N/A   Clear
6:55 PM 44.6 °F 41.4 °F 17.6 °F 34% 30.01 in 10.0 mi SSW 5.8 mph - N/A   Clear
7:15 PM 44.6 °F 42.2 °F 17.6 °F 34% 30.01 in 10.0 mi SSW 4.6 mph - N/A   Clear
7:35 PM 42.8 °F 40.1 °F 19.4 °F 39% 30.02 in 5.0 mi SW 4.6 mph - N/A   Haze
7:55 PM 42.8 °F 41.1 °F 19.4 °F 39% 30.01 in 10.0 mi SW 3.5 mph - N/A   Clear
8:15 PM 41.0 °F 38.0 °F 19.4 °F 42% 30.01 in 10.0 mi SSW 4.6 mph - N/A   Clear
8:35 PM 41.0 °F 38.0 °F 17.6 °F 39% 30.01 in 10.0 mi SSW 4.6 mph - N/A   Clear
8:55 PM 39.2 °F 37.0 °F 19.4 °F 45% 30.01 in 10.0 mi SSW 3.5 mph - N/A   Clear
9:15 PM 41.0 °F 38.0 °F 15.8 °F 36% 30.01 in 10.0 mi SSW 4.6 mph - N/A   Clear
9:35 PM 39.2 °F 35.9 °F 19.4 °F 45% 30.01 in 5.0 mi SSW 4.6 mph - N/A   Haze
9:55 PM 37.4 °F 33.8 °F 19.4 °F 48% 30.01 in 4.0 mi SW 4.6 mph - N/A   Haze
10:15 PM 41.0 °F 35.2 °F 19.4 °F 42% 30.01 in 7.0 mi SSW 9.2 mph - N/A   Clear
10:35 PM 44.6 °F 40.2 °F 17.6 °F 34% 30.01 in 10.0 mi SW 8.1 mph - N/A   Clear
10:55 PM 42.8 °F 39.3 °F 19.4 °F 39% 30.01 in 10.0 mi SSW 5.8 mph - N/A   Clear
11:15 PM 42.8 °F 38.0 °F 19.4 °F 39% 30.01 in 5.0 mi SSW 8.1 mph - N/A   Haze
11:35 PM 44.6 °F 39.7 °F 23.0 °F 43% 30.00 in 10.0 mi South 9.2 mph - N/A   Clear
11:55 PM 42.8 °F 38.6 °F 23.0 °F 46% 30.00 in 10.0 mi SSW 6.9 mph - N/A   Clear